Location: Ames
(42.0350°N, 93.6200°W)
Time: 15:44:58
(UTC-05:00)

ISS - All Passes

Search period start: 25 June 2017 00:00
Search period end: 05 July 2017 00:00
Orbit: 401 x 408 km, 51.6° (Epoch: 26 June)

Date Brightness Start Highest point End Pass type
(mag) Time Alt. Az. Time Alt. Az. Time Alt. Az.
25 Jun - 09:18:05 10° SW 09:21:17 53° SE 09:24:30 10° ENE daylight
25 Jun - 10:55:05 10° W 10:57:56 27° NNW 11:00:48 10° NE daylight
25 Jun - 12:33:11 10° NW 12:35:14 15° N 12:37:19 10° NE daylight
25 Jun - 14:09:50 10° NW 14:12:35 24° NNE 14:15:20 10° ENE daylight
25 Jun - 15:46:02 10° WNW 15:49:20 70° SW 15:52:36 10° SE daylight
26 Jun - 08:26:23 10° SSW 08:29:14 27° SE 08:32:05 10° ENE daylight
26 Jun - 10:02:31 10° W 10:05:38 39° NNW 10:08:45 10° NE daylight
26 Jun - 11:40:36 10° NW 11:42:47 16° N 11:44:58 10° NE daylight
26 Jun - 13:17:45 10° NW 13:20:11 19° NNE 13:22:38 10° ENE daylight
26 Jun - 14:53:53 10° NW 14:57:10 64° NNE 15:00:26 10° ESE daylight
26 Jun - 16:31:16 10° W 16:33:18 15° SW 16:35:21 10° S daylight
27 Jun - 07:35:18 10° SSE 07:37:14 15° SE 07:39:12 10° E daylight
27 Jun - 09:10:07 10° WSW 09:13:22 66° NNW 09:16:39 10° NE daylight
27 Jun - 10:47:54 10° WNW 10:50:20 19° NNW 10:52:47 10° NE daylight
27 Jun - 12:25:33 10° NW 12:27:45 16° N 12:29:55 10° NE daylight
27 Jun - 14:01:47 10° NW 14:04:54 38° NNE 14:08:01 10° E daylight
27 Jun - 15:38:25 10° WNW 15:41:18 28° SW 15:44:11 10° SSE daylight
28 Jun - 08:17:57 10° SW 08:21:11 68° SE 08:24:27 10° ENE daylight
28 Jun - 09:55:11 10° WNW 09:57:55 24° NNW 10:00:40 10° NE daylight
28 Jun - 11:33:12 10° NW 11:35:15 15° N 11:37:19 10° NE daylight
28 Jun - 13:09:42 10° NW 13:12:34 26° NNE 13:15:25 10° E daylight
28 Jun - 14:45:59 10° WNW 14:49:13 54° SW 14:52:27 10° SE daylight
29 Jun - 07:26:04 10° SSW 07:29:04 34° SE 07:32:05 10° ENE daylight
29 Jun - 09:02:31 10° W 09:05:33 33° NNW 09:08:35 10° NE daylight
29 Jun - 10:40:39 10° NW 10:42:46 16° N 10:44:52 10° NE daylight
29 Jun - 12:17:36 10° NW 12:20:09 20° NNE 12:22:42 10° ENE daylight
29 Jun - 13:53:44 10° NW 13:57:02 79° NNE 14:00:20 10° ESE daylight
29 Jun - 15:31:39 10° WSW 15:33:05 12° SW 15:34:31 10° SSW daylight
30 Jun - 06:34:39 10° S 06:37:00 19° SE 06:39:23 10° E daylight
30 Jun - 08:10:01 10° WSW 08:13:14 53° NNW 08:16:28 10° NE daylight
30 Jun - 09:47:56 10° WNW 09:50:16 18° N 09:52:36 10° NE daylight
30 Jun - 11:25:25 10° NW 11:27:41 17° N 11:29:56 10° NE daylight
30 Jun - 13:01:34 10° NW 13:04:46 45° NNE 13:07:57 10° ESE daylight
30 Jun - 14:38:25 10° W 14:41:05 23° SW 14:43:44 10° S daylight
01 Jul - 07:17:43 10° SW 07:20:59 85° SE 07:24:16 10° ENE daylight
01 Jul - 08:55:10 10° WNW 08:57:48 22° NNW 09:00:26 10° NE daylight
01 Jul - 10:33:05 10° NW 10:35:10 15° N 10:37:14 10° NE daylight
01 Jul - 12:09:28 10° NW 12:12:25 30° NNE 12:15:22 10° E daylight
01 Jul - 13:45:50 10° WNW 13:48:59 43° SW 13:52:07 10° SSE daylight
02 Jul - 06:25:40 10° SSW 06:28:47 43° SE 06:31:55 10° ENE daylight
02 Jul - 08:02:26 10° W 08:05:21 29° NNW 08:08:18 10° NE daylight
02 Jul - 09:40:33 10° NW 09:42:37 15° N 09:44:41 10° NE daylight
02 Jul - 11:17:20 10° NW 11:19:59 22° NNE 11:22:38 10° ENE daylight
02 Jul - 12:53:29 10° WNW 12:56:47 83° SW 13:00:04 10° SE daylight
03 Jul - 05:34:01 10° S 05:36:40 23° SE 05:39:20 10° E daylight
03 Jul - 07:09:50 10° WSW 07:12:58 44° NNW 07:16:09 10° NE daylight
03 Jul - 08:47:51 10° NW 08:50:05 17° N 08:52:19 10° NE daylight
03 Jul - 10:25:08 10° NW 10:27:29 18° NNE 10:29:50 10° ENE daylight
03 Jul - 12:01:16 10° NW 12:04:31 54° NNE 12:07:44 10° ESE daylight
03 Jul - 13:38:22 10° W 13:40:43 18° SW 13:43:04 10° S daylight
04 Jul - 04:43:11 10° SSE 04:44:37 12° SE 04:46:04 10° ESE visible
04 Jul - 06:17:24 10° WSW 06:20:40 78° NW 06:23:56 10° NE daylight
04 Jul - 07:55:03 10° WNW 07:57:33 20° NNW 08:00:05 10° NE daylight
04 Jul - 09:32:50 10° NW 09:34:56 16° N 09:37:03 10° NE daylight
04 Jul - 11:09:06 10° NW 11:12:08 34° NNE 11:15:11 10° E daylight
04 Jul - 12:45:36 10° WNW 12:48:37 34° SW 12:51:38 10° SSE daylight
